Regional Weather Roundup
Issued by NWS

Home | Current Version | Previous Version | Text Only | Print | Product List | Glossary Off
Versions: 1 2 3 4 5 6 7 8 9 10 11 12 13 14 15 16 17 18 19 20 21 22 23 24 25 26 27 28 29 30 31 32 33 34 35 36 37 38 39 40 41 42 43 44 45 46 47 48 49 50

000
ASUS43 KDTX 310710
RWRMI
MICHIGAN HOURLY REGIONAL WEATHER ROUNDUP
NATIONAL WEATHER SERVICE DETROIT/PONTIAC MI
300 AM EDT MON AUG 31 2015

NOTE: "FAIR" INDICATES FEW OR NO CLOUDS BELOW 12,000 FEET WITH NO
SIGNIFICANT WEATHER AND/OR OBSTRUCTION TO VISIBILITY.

MIZ047>049-052>055-059>063-066>070-074>076-081>083-310800-
SOUTHEAST LOWER MICHIGAN

CITY           SKY/WX    TMP DP  RH WIND       PRES   REMARKS
ADRIAN         FOG       63  62  97 CALM      30.05F VSB 1/2
ALMA           CLOUDY    66  65  98 SW3       30.04S FOG
ANN ARBOR      FOG       62  61  96 CALM      30.04F VSB 1/4
BAD AXE        FOG       61  61 100 CALM      30.02S VSB 1/4
CARO           FOG       60  60 100 CALM      30.02S VSB 1/4
DETROIT CITY   CLEAR     69  66  90 CALM      30.03S
DETROIT        PTCLDY    70  66  88 CALM      30.04S FOG
FLINT          CLEAR     66  62  87 SW6       30.03F FOG
GROSSE ILE     CLEAR     68  66  94 CALM      30.02F FOG
HILLSDALE      FOG       62  62 100 CALM      30.06F VSB<1/4
HOWELL         FOG       63  62  99 CALM      30.04F VSB 1/2

CITY           SKY/WX    TMP DP  RH WIND       PRES   REMARKS
JACKSON        FOG       62  61  96 CALM      30.05S VSB 1/4
LAMBERTVILLE   FOG       65  63  92 CALM      30.04S VSB 1/2
LANSING        CLEAR     62  61  96 W5        30.05S
LAPEER         FOG       59  59 100 CALM      30.03F VSB 1/4
MASON          FOG       61  58  92 S3        30.05S VSB 1/4
MONROE         FOG       65  65  97 CALM      30.03S VSB 1/2
MT. CLEMENS    CLEAR     66  66 100 CALM      30.01S FOG
PONTIAC        PTCLDY    66  64  93 CALM      30.03F FOG
PORT HOPE        N/A     66  65  96 SW5       29.99F
PORT HURON     FOG       63  63 100 CALM      30.02F VSB 1/4
TRI CITIES     MOCLDY    65  63  93 SW6       30.03S FOG
MIDLAND        CLOUDY    64  63  97 CALM      30.01F FOG
TROY           PTCLDY    70  67  90 CALM      30.05S
SAGINAW HB     CLEAR     61  61 100 SW6       30.02S FOG
$$
MIZ043>046-050>051-056>058-064>065-071>073-077>080-310800-
SOUTHWEST LOWER MICHIGAN

CITY           SKY/WX    TMP DP  RH WIND       PRES   REMARKS
BATTLE CREEK   PTCLDY    61  59  93 S3        30.05F FOG
BENTON HARBOR  PTCLDY    59  58  96 CALM      30.04S FOG
BIG RAPIDS     FOG       58  57  98 CALM      30.03F VSB 3/4
COLDWATER      FOG       62  62 100 CALM      30.06F VSB<1/4
FREMONT        FOG       60  60 100 CALM      30.03S VSB<1/4
HOLLAND        FOG       64  60  87 CALM      30.05S VSB 1/4
GRAND RAPIDS   CLOUDY    66  64  93 SW6       30.05R FOG
IONIA          FOG       64  64 100 W5        30.04S VSB 1/4
KALAMAZOO      FOG       58  56  93 CALM      30.05F VSB 3/4
LUDINGTON      CLEAR     67  64  89 SW8       30.02S
MARSHALL       FOG       59  58  97 CALM      30.05S VSB 1/4
MOUNT PLEASANT FOG       64  63  94 SW3       30.02F VSB 1/2
MUSKEGON       FOG       60  58  92 CALM      30.04S VSB 1/4
SOUTH HAVEN      N/A     58  57  97 CALM      30.04F FOG
$$
MIZ016>042-310800-
NORTHERN LOWER MICHIGAN

CITY           SKY/WX    TMP DP  RH WIND       PRES   REMARKS
ALPENA         CLEAR     59  57  93 CALM      29.99S
BEAVER ISLAND  CLEAR     65  63  95 SW8       29.97F
BELLAIRE       CLEAR     59  58  95 CALM      30.00S FOG
CADILLAC       CLEAR     59  58  97 SW5       30.03S
CHARLEVOIX     CLEAR     64  63  97 CALM      30.01F
FRANKFORT      CLEAR     66  64  94 W7        30.01S
GAYLORD        CLEAR     61  60  97 SW3       30.01F
GRAYLING       CLEAR     61  60  97 W3        30.02S
HARBOR SPRINGS CLOUDY    65  62  91 SW6       29.98F
HOUGHTON LAKE  CLEAR     64  61  90 SW5       30.02F
MANISTEE       CLOUDY    55  54  94 E3        30.02S VSB 1/4
OSCODA         CLEAR     62  62  99 CALM      29.99S FOG
PELLSTON       CLEAR     65  62  90 SW6       29.98S
ROGERS CITY    CLEAR     64  61  91 SW5       29.99S
TRAVERSE CITY  CLEAR     64  61  90 VRB5      29.98F
$$
MIZ007>008-015-310800-
EASTERN UPPER MICHIGAN

CITY           SKY/WX    TMP DP  RH WIND       PRES   REMARKS
KINROSS        CLOUDY    64  64 100 SW7       29.95S
MACKINAC ISLAN CLOUDY    65  64  94 SW9       29.97S FOG
NEWBERRY       CLEAR     62  62  99 SW9       29.94F FOG
S. S. MARIE    CLOUDY    64  62  93 SW3       29.93F
MUNISING         N/A     68  63  84 VRB3      29.92S
$$
MIZ004>006-011>014-085-310800-
CENTRAL UPPER MICHIGAN

CITY           SKY/WX    TMP DP  RH WIND       PRES   REMARKS
MANISTIQUE     CLEAR     62  62  97 SW7       29.94F FOG
ESCANABA       MOCLDY    61  59  94 CALM      29.94F VSB 1/4
MENOMINEE      CLEAR     63  61  94 SW6       29.96S
SAWYER-GWINN   CLEAR     63  61  95 CALM      29.94F
$$
MIZ001>003-009>011-084-310800-
WESTERN UPPER MICHIGAN

CITY           SKY/WX    TMP DP  RH WIND       PRES   REMARKS
IRON MOUNTAIN  CLEAR     62  60  93 CALM      29.95S
HOUGHTON       CLEAR     68  62  81 W6        29.90S
IRONWOOD       CLEAR     66  64  94 SW5       29.91R
$$

ABBREVIATIONS USED IN REMARKS
   TC - TEMPERATURE IN CELSIUS
  WCI - WIND CHILL INDEX
   HX - HEAT INDEX
  VSB - VISIBILITY



USA.gov is the U.S. government's official web portal to all federal, state and local government web resources and services.